User: anonymous   Login
Location: Dürabuch
(48.2640°N, 11.2185°E)
Time: 16:55:05
(UTC+00:00)
Language:

Resurs 1-4 Rocket - Orbit

View from above orbital plane
View from above orbital plane
View from above satellite
View from above satellite

Ground track
Ground track

The orbit data is extracted from the following two-line orbital elements,

1 25400U 98043G   24201.82330208  .00000198  00000-0  10204-3 0  9998
2 25400  98.7453 142.8088 0009078 314.6682  45.3757 14.25770820353787
Epoch (UTC): 19 July 2024 19:45:33
Eccentricity: 0.0009078
inclination: 98.7453°
perigee height: 799 km
apogee height: 812 km
right ascension of ascending node: 142.8088°
argument of perigee: 314.6682°
revolutions per day: 14.25770820
mean anomaly at epoch: 45.3757°
orbit number at epoch: 35378

The dashed part of the orbit path shows where the satellite is in the earth's shadow,  

DLR